Weather observations for the past three days for
Jonesboro, Jonesboro Municipal Airport
Imperial (Metric)
Date Time (cdt) Wind (mph) Vis. (mi.) Weather Sky Cond. Temperature (ºF) Relative Humidity Wind Chill (°F) Heat Index (°F) Pressure Precipitation (in)
Air Dwpt 6 hour altimeter (in) sea level (mb) 1 hr 3 hr 6 hr
Max. Min.
16 00:53 S 6 10.00 Fair CLR 81 73 91.9 81 77% 86 29.9 1012.2
15 23:53 S 6 10.00 Fair CLR 82 73.9 77% 88 29.93 1013.0
15 22:53 SW 6 10.00 Fair CLR 84.9 73.9 70% 92 29.93 1013.2
15 21:53 SW 7 10.00 Fair CLR 86 73.9 67% 94 29.9 1012.2
15 20:53 SW 9 10.00 Fair CLR 87.1 73.9 65% 95 29.88 1011.5
15 19:53 SW 10 10.00 Fair CLR 90 73.9 59% 99 29.88 1011.3
15 18:53 SW 14 10.00 Fair CLR 91.9 72 95 91.9 52% 100 29.88 1011.5
15 17:53 S 13 10.00 Fair CLR 93 72 50% 101 29.89 1011.7
15 16:53 SW 13 10.00 Partly Cloudy SCT044 95 72 47% 103 29.9 1012.0
15 15:53 SW 14 G 21 10.00 Fair CLR 95 70 44% 101 29.91 1012.5
15 14:53 SW 9 G 20 10.00 A Few Clouds FEW042 FEW055 93.9 71.1 48% 101 29.94 1013.4
15 13:53 SW 13 G 22 10.00 Partly Cloudy FEW040 SCT055 93.9 71.1 48% 101 29.95 1013.8
15 12:53 S 12 G 20 10.00 A Few Clouds FEW034 93 73.9 93 75.9 54% 103 29.97 1014.4
15 11:53 SW 13 10.00 Fair CLR 91.9 73.9 56% 102 29.99 1015.1
15 10:53 Calm 10.00 Fair CLR 89.1 75 63% 99 30 1015.5
15 09:53 SW 7 10.00 Fair CLR 87.1 73.9 65% 95 30.01 1015.9
15 08:53 SW 8 10.00 Fair CLR 82 73 74% 87 30.03 1016.5
15 07:53 Calm 10.00 Fair CLR 80.1 72 76% 84 30.04 1016.7
15 06:53 Calm 10.00 Fair CLR 77 70 79 75 79% 79 30.02 1016.3
15 05:53 S 5 10.00 Fair CLR 77 71.1 82% 79 30.01 1015.8
15 04:53 SW 7 10.00 Fair CLR 77 71.1 82% 79 30.01 1015.9
15 03:53 SW 8 10.00 Fair CLR 79 70 74% 82 30 1015.7
15 02:53 SW 8 10.00 Fair CLR 79 70 74% 82 30 1015.6
15 01:53 S 5 10.00 Fair CLR 75.9 69.1 79% 77 30.02 1016.1
15 00:53 SW 3 10.00 Fair CLR 78.1 70 90 75.9 76% 80 30.02 1016.0
14 23:53 S 3 10.00 Fair CLR 79 70 74% 82 30.03 1016.4
14 22:53 Calm 10.00 Fair CLR 78.1 71.1 79% 80 30.03 1016.4
14 21:53 Calm 10.00 Fair CLR 82.9 71.1 67% 88 30.03 1016.6
14 20:53 SW 6 10.00 Fair CLR 84 70 63% 88 30.02 1016.2
14 19:53 SW 7 10.00 Fair CLR 87.1 68 53% 91 30.01 1016.0
14 18:53 SW 9 10.00 Fair CLR 90 68 93 90 48% 94 30.01 1015.9
14 17:53 SW 9 10.00 Fair CLR 91 66.9 45% 94 30.03 1016.4
14 16:53 S 8 10.00 A Few Clouds FEW050 91.9 66.9 44% 95 30.03 1016.5
14 15:53 Vrbl 5 10.00 Fair CLR 91.9 64 40% 94 30.04 1016.8
14 14:53 SW 10 10.00 Fair CLR 93 64 38% 95 30.06 1017.6
14 13:53 SW 12 10.00 A Few Clouds FEW046 91.9 68 46% 96 30.08 1018.4
14 12:53 SW 13 G 22 10.00 Mostly Cloudy BKN045 BKN050 91.9 69.1 91.9 77 47% 97 30.11 1019.1
14 11:53 W 8 10.00 Overcast BKN040 OVC060 89.1 69.1 52% 94 30.12 1019.7
14 10:53 SW 10 10.00 Partly Cloudy FEW039 SCT050 89.1 70 53% 94 30.14 1020.1
14 09:53 W 8 10.00 Fair CLR 88 70 55% 93 30.13 1020.0
14 08:53 SW 6 10.00 Fair CLR 84 71.1 65% 89 30.14 1020.2
14 07:53 Calm 10.00 Fair CLR 80.1 71.1 74% 84 30.13 1020.0
14 06:53 S 3 10.00 Fair CLR 77 71.1 80.1 73 82% 79 30.12 1019.6
14 05:53 Calm 8.00 Fair CLR 73.9 70 88% 30.11 1019.3
14 04:53 Calm 8.00 Fair CLR 73 70 90% 30.11 1019.1
14 02:53 Calm 10.00 Fair CLR 75.9 72 88% 76 30.11 1019.1
14 01:53 Calm 10.00 Fair CLR 78.1 73 85% 81 30.12 1019.7
14 00:53 Calm 10.00 Fair CLR 79 72 90 78.1 79% 82 30.13 1020.0
13 23:53 S 3 10.00 Overcast OVC120 82 72 72% 87 30.14 1020.3
13 22:53 SE 3 10.00 Fair CLR 82 72 72% 87 30.14 1020.1
13 21:53 S 6 10.00 Fair CLR 82.9 73 72% 89 30.13 1019.9
13 20:53 S 5 10.00 Fair CLR 84.9 72 65% 91 30.12 1019.6
13 19:53 S 5 10.00 Fair CLR 87.1 70 57% 92 30.11 1019.3
13 18:53 S 7 10.00 Fair CLR 90 68 93 89.1 48% 94 30.11 1019.2
13 17:53 SW 9 10.00 Fair CLR 91 64.9 42% 93 30.11 1019.3
13 16:53 S 5 10.00 Fair CLR 91.9 64 40% 94 30.13 1019.8
13 15:53 Calm 10.00 Mostly Cloudy BKN050 BKN060 91.9 68 46% 96 30.14 1020.3
13 14:53 S 3 10.00 Mostly Cloudy SCT048 BKN065 91 66 44% 94 30.16 1021.0
13 13:53 Vrbl 7 10.00 Mostly Cloudy BKN047 91 68 47% 95 30.19 1021.8
13 12:53 SW 9 10.00 A Few Clouds FEW050 91.9 68 91.9 73.9 46% 96 30.2 1022.4
13 11:53 S 8 10.00 Fair CLR 90 70 52% 95 30.2 1022.3
13 10:53 SW 5 10.00 Fair CLR 88 70 55% 93 30.2 1022.3
13 09:53 SW 7 10.00 Fair CLR 86 68 55% 89 30.2 1022.2
13 08:53 S 3 10.00 Fair CLR 82.9 72 70% 88 30.2 1022.2
13 07:53 Calm 10.00 Fair CLR 78.1 71.1 79% 80 30.19 1021.9
13 06:53 Calm 10.00 Fair CLR 73.9 70 77 72 88% 30.18 1021.6
13 05:53 Calm 10.00 A Few Clouds FEW110 73 68 84% 30.16 1020.8
13 04:53 Calm 10.00 Mostly Cloudy BKN110 73 69.1 87% 30.14 1020.2
13 02:53 Calm 10.00 Fair CLR 73.9 69.1 85% 30.12 1019.6
13 01:53 Calm 10.00 A Few Clouds FEW110 73.9 69.1 85% 30.12 1019.7
Date Time (cdt) Wind (mph) Vis. (mi.) Weather Sky Cond. Air Dwpt Max. Min. Relative Humidity Wind Chill (°F) Heat Index (°F) altimeter (in) sea level (mb) 1 hr 3 hr 6 hr
6 hour
Temperature (ºF) Pressure Precipitation (in)